Time,TemperatureF,DewpointF,PressureIn,WindDirection,WindDirectionDegrees,WindSpeedMPH,WindSpeedGustMPH,Humidity,HourlyPrecipIn,Conditions,Clouds,dailyrainin,SoftwareType,DateUTC
2013-03-22 00:02:00,25.0,25.0,29.83,North,360,9.0,-999.0,100,-99.99,,,-99.99,,2013-03-22 06:02:00,
2013-03-22 00:13:00,25.0,25.0,29.83,North,360,9.0,-999.0,100,-99.99,,,-99.99,,2013-03-22 06:13:00,
2013-03-22 00:22:00,25.0,25.0,29.82,North,360,7.0,-999.0,100,-99.99,,,-99.99,,2013-03-22 06:22:00,
2013-03-22 00:32:00,25.0,25.0,29.82,North,360,7.0,-999.0,100,-99.99,,,-99.99,,2013-03-22 06:32:00,
2013-03-22 00:42:00,25.0,25.0,29.82,North,360,7.0,-999.0,100,-99.99,,,-99.99,,2013-03-22 06:42:00,
2013-03-22 00:52:00,25.0,25.0,29.82,North,360,7.0,-999.0,100,-99.99,,,-99.99,,2013-03-22 06:52:00,
2013-03-22 01:02:00,25.0,25.0,29.82,NNE,20,6.0,-999.0,100,-99.99,,,-99.99,,2013-03-22 07:02:00,
2013-03-22 01:12:00,25.0,25.0,29.82,NNE,20,6.0,-999.0,100,-99.99,,,-99.99,,2013-03-22 07:12:00,
2013-03-22 01:22:00,25.0,25.0,29.82,North,360,6.0,-999.0,100,-99.99,,,-99.99,,2013-03-22 07:22:00,
2013-03-22 01:32:00,25.0,25.0,29.82,North,360,6.0,-999.0,100,-99.99,,,-99.99,,2013-03-22 07:32:00,
2013-03-22 01:42:00,24.0,24.0,29.82,North,10,3.0,-999.0,100,-99.99,,,-99.99,,2013-03-22 07:42:00,
2013-03-22 01:52:00,24.0,24.0,29.82,North,10,3.0,-999.0,100,-99.99,,,-99.99,,2013-03-22 07:52:00,
2013-03-22 02:03:00,24.0,24.0,29.82,NNW,340,3.0,-999.0,100,-99.99,,,-99.99,,2013-03-22 08:03:00,
2013-03-22 02:12:00,24.0,24.0,29.82,NNW,340,3.0,-999.0,100,-99.99,,,-99.99,,2013-03-22 08:12:00,
2013-03-22 02:22:00,24.0,24.0,29.82,North,0,0.0,-999.0,100,-99.99,,,-99.99,,2013-03-22 08:22:00,
2013-03-22 02:32:00,24.0,24.0,29.82,North,0,0.0,-999.0,100,-99.99,,,-99.99,,2013-03-22 08:32:00,
2013-03-22 02:42:00,24.0,24.0,29.82,North,0,0.0,-999.0,100,-99.99,,,-99.99,,2013-03-22 08:42:00,
2013-03-22 02:52:00,24.0,24.0,29.82,North,0,0.0,-999.0,100,-99.99,,,-99.99,,2013-03-22 08:52:00,
2013-03-22 03:02:00,24.0,24.0,29.82,South,180,5.0,-999.0,100,-99.99,,,-99.99,,2013-03-22 09:02:00,
2013-03-22 03:12:00,24.0,24.0,29.82,South,180,5.0,-999.0,100,-99.99,,,-99.99,,2013-03-22 09:12:00,
2013-03-22 03:22:00,23.0,-99.9,29.81,SSE,160,3.0,-999.0,-999,-99.99,,,-99.99,,2013-03-22 09:22:00,
2013-03-22 03:33:00,23.0,-99.9,29.81,SSE,160,3.0,-999.0,-999,-99.99,,,-99.99,,2013-03-22 09:33:00,
2013-03-22 03:42:00,22.0,-99.9,29.81,SSE,160,5.0,-999.0,-999,-99.99,,,-99.99,,2013-03-22 09:42:00,
2013-03-22 03:53:00,22.0,-99.9,29.81,SSE,160,5.0,-999.0,-999,-99.99,,,-99.99,,2013-03-22 09:53:00,
2013-03-22 04:04:00,22.0,-99.9,29.81,SSW,200,3.0,-999.0,-999,-99.99,,,-99.99,,2013-03-22 10:04:00,
2013-03-22 04:12:00,22.0,-99.9,29.81,SSW,200,3.0,-999.0,-999,-99.99,,,-99.99,,2013-03-22 10:12:00,
2013-03-22 04:23:00,22.0,-99.9,29.80,SSE,160,5.0,-999.0,-999,-99.99,,,-99.99,,2013-03-22 10:23:00,
2013-03-22 04:33:00,22.0,-99.9,29.80,SSE,160,5.0,-999.0,-999,-99.99,,,-99.99,,2013-03-22 10:33:00,
2013-03-22 04:42:00,22.0,-99.9,29.80,South,180,5.0,-999.0,-999,-99.99,,,-99.99,,2013-03-22 10:42:00,
2013-03-22 04:52:00,22.0,-99.9,29.80,South,180,5.0,-999.0,-999,-99.99,,,-99.99,,2013-03-22 10:52:00,
2013-03-22 05:03:00,21.0,-99.9,29.80,South,190,3.0,-999.0,-999,-99.99,,,-99.99,,2013-03-22 11:03:00,
2013-03-22 05:12:00,21.0,-99.9,29.80,South,190,3.0,-999.0,-999,-99.99,,,-99.99,,2013-03-22 11:12:00,
2013-03-22 05:22:00,21.0,-99.9,29.79,SE,140,2.0,-999.0,-999,-99.99,,,-99.99,,2013-03-22 11:22:00,
2013-03-22 05:33:00,21.0,-99.9,29.79,SE,140,2.0,-999.0,-999,-99.99,,,-99.99,,2013-03-22 11:33:00,
2013-03-22 05:42:00,19.0,-99.9,29.80,South,190,3.0,-999.0,-999,-99.99,,,-99.99,,2013-03-22 11:42:00,
2013-03-22 05:52:00,19.0,-99.9,29.80,South,190,3.0,-999.0,-999,-99.99,,,-99.99,,2013-03-22 11:52:00,
2013-03-22 06:02:00,19.0,-99.9,29.80,North,0,0.0,-999.0,-999,-99.99,,,-99.99,,2013-03-22 12:02:00,
2013-03-22 06:12:00,19.0,-99.9,29.80,North,0,0.0,-999.0,-999,-99.99,,,-99.99,,2013-03-22 12:12:00,
2013-03-22 06:22:00,18.0,-99.9,29.80,North,0,0.0,-999.0,-999,-99.99,,,-99.99,,2013-03-22 12:22:00,
2013-03-22 06:32:00,18.0,-99.9,29.80,North,0,0.0,-999.0,-999,-99.99,,,-99.99,,2013-03-22 12:32:00,
2013-03-22 06:42:00,20.0,-99.9,29.80,NNW,340,3.0,-999.0,-999,-99.99,,,-99.99,,2013-03-22 12:42:00,
2013-03-22 06:52:00,20.0,-99.9,29.80,NNW,340,3.0,-999.0,-999,-99.99,,,-99.99,,2013-03-22 12:52:00,
2013-03-22 07:02:00,23.0,-99.9,29.80,West,270,6.0,-999.0,-999,-99.99,,,-99.99,,2013-03-22 13:02:00,
2013-03-22 07:13:00,23.0,-99.9,29.80,West,270,6.0,-999.0,-999,-99.99,,,-99.99,,2013-03-22 13:13:00,
2013-03-22 07:22:00,26.0,-99.9,29.80,WSW,240,5.0,-999.0,-999,-99.99,,,-99.99,,2013-03-22 13:22:00,
2013-03-22 07:32:00,26.0,-99.9,29.80,WSW,240,5.0,-999.0,-999,-99.99,,,-99.99,,2013-03-22 13:32:00,
2013-03-22 07:42:00,26.0,-99.9,29.80,WSW,240,3.0,-999.0,-999,-99.99,,,-99.99,,2013-03-22 13:42:00,
2013-03-22 07:53:00,26.0,-99.9,29.80,WSW,240,3.0,-999.0,-999,-99.99,,,-99.99,,2013-03-22 13:53:00,
2013-03-22 08:02:00,26.0,26.0,29.80,West,280,5.0,-999.0,100,-99.99,,,-99.99,,2013-03-22 14:02:00,
2013-03-22 08:12:00,26.0,26.0,29.80,West,280,5.0,-999.0,100,-99.99,,,-99.99,,2013-03-22 14:12:00,
2013-03-22 08:22:00,28.0,28.0,29.79,WNW,290,2.0,-999.0,98,-99.99,,,-99.99,,2013-03-22 14:22:00,
2013-03-22 08:32:00,28.0,28.0,29.79,WNW,290,2.0,-999.0,98,-99.99,,,-99.99,,2013-03-22 14:32:00,
2013-03-22 08:42:00,27.0,27.0,29.80,East,100,3.0,-999.0,99,-99.99,,,-99.99,,2013-03-22 14:42:00,
2013-03-22 08:52:00,27.0,27.0,29.80,East,100,3.0,-999.0,99,-99.99,,,-99.99,,2013-03-22 14:52:00,
2013-03-22 09:03:00,21.0,21.0,29.80,ESE,120,3.0,-999.0,100,-99.99,,,-99.99,,2013-03-22 15:03:00,
2013-03-22 09:12:00,21.0,21.0,29.80,ESE,120,3.0,-999.0,100,-99.99,,,-99.99,,2013-03-22 15:12:00,
2013-03-22 09:22:00,22.0,22.0,29.80,ESE,120,5.0,-999.0,100,-99.99,,,-99.99,,2013-03-22 15:22:00,
2013-03-22 09:32:00,22.0,22.0,29.80,ESE,120,5.0,-999.0,100,-99.99,,,-99.99,,2013-03-22 15:32:00,
2013-03-22 09:42:00,24.0,24.0,29.81,East,90,2.0,-999.0,99,-99.99,,,-99.99,,2013-03-22 15:42:00,
2013-03-22 09:52:00,24.0,24.0,29.81,East,90,2.0,-999.0,99,-99.99,,,-99.99,,2013-03-22 15:52:00,
2013-03-22 10:03:00,23.0,23.0,29.81,SE,130,6.0,-999.0,100,-99.99,,,-99.99,,2013-03-22 16:03:00,
2013-03-22 10:13:00,23.0,23.0,29.81,SE,130,6.0,-999.0,100,-99.99,,,-99.99,,2013-03-22 16:13:00,
2013-03-22 10:23:00,25.0,24.0,29.81,South,180,3.0,-999.0,97,-99.99,,,-99.99,,2013-03-22 16:23:00,
2013-03-22 10:32:00,25.0,24.0,29.81,South,180,3.0,-999.0,97,-99.99,,,-99.99,,2013-03-22 16:32:00,
2013-03-22 10:42:00,29.0,27.0,29.81,ESE,110,5.0,-999.0,90,-99.99,,,-99.99,,2013-03-22 16:42:00,
2013-03-22 10:52:00,29.0,27.0,29.81,ESE,110,5.0,-999.0,90,-99.99,,,-99.99,,2013-03-22 16:52:00,
2013-03-22 11:03:00,28.0,26.0,29.81,East,100,6.0,-999.0,94,-99.99,,,-99.99,,2013-03-22 17:03:00,
2013-03-22 11:12:00,28.0,26.0,29.81,East,100,6.0,-999.0,94,-99.99,,,-99.99,,2013-03-22 17:12:00,
2013-03-22 11:23:00,29.0,27.0,29.82,SE,130,5.0,-999.0,93,-99.99,,,-99.99,,2013-03-22 17:23:00,
2013-03-22 11:32:00,29.0,27.0,29.82,SE,130,5.0,-999.0,93,-99.99,,,-99.99,,2013-03-22 17:32:00,
2013-03-22 11:42:00,30.0,29.0,29.82,SE,140,9.0,-999.0,95,-99.99,,,-99.99,,2013-03-22 17:42:00,
2013-03-22 11:52:00,30.0,29.0,29.82,SE,140,9.0,-999.0,95,-99.99,,,-99.99,,2013-03-22 17:52:00,
2013-03-22 12:02:00,32.0,30.0,29.83,ESE,110,6.0,-999.0,94,-99.99,,,-99.99,,2013-03-22 18:02:00,
2013-03-22 12:12:00,32.0,30.0,29.83,ESE,110,6.0,-999.0,94,-99.99,,,-99.99,,2013-03-22 18:12:00,
2013-03-22 12:22:00,33.0,31.0,29.82,East,100,7.0,-999.0,92,-99.99,,,-99.99,,2013-03-22 18:22:00,
2013-03-22 12:33:00,33.0,31.0,29.82,East,100,7.0,-999.0,92,-99.99,,,-99.99,,2013-03-22 18:33:00,
2013-03-22 12:42:00,33.0,30.0,29.82,East,80,6.0,-999.0,87,-99.99,,,-99.99,,2013-03-22 18:42:00,
2013-03-22 12:52:00,33.0,30.0,29.82,East,80,6.0,-999.0,87,-99.99,,,-99.99,,2013-03-22 18:52:00,
2013-03-22 13:02:00,36.0,30.0,29.83,NE,40,9.0,-999.0,81,-99.99,,,-99.99,,2013-03-22 19:02:00,
2013-03-22 13:12:00,36.0,30.0,29.83,NE,40,9.0,-999.0,81,-99.99,,,-99.99,,2013-03-22 19:12:00,
2013-03-22 13:22:00,35.0,29.0,29.83,East,80,5.0,-999.0,79,-99.99,,,-99.99,,2013-03-22 19:22:00,
2013-03-22 13:32:00,35.0,29.0,29.83,East,80,5.0,-999.0,79,-99.99,,,-99.99,,2013-03-22 19:32:00,
2013-03-22 13:42:00,34.0,29.0,29.83,ENE,60,7.0,-999.0,81,-99.99,,,-99.99,,2013-03-22 19:42:00,
2013-03-22 13:52:00,34.0,29.0,29.83,ENE,60,7.0,-999.0,81,-99.99,,,-99.99,,2013-03-22 19:52:00,
2013-03-22 14:02:00,33.0,28.0,29.83,ENE,60,6.0,-999.0,82,-99.99,,,-99.99,,2013-03-22 20:02:00,
2013-03-22 14:12:00,33.0,28.0,29.83,ENE,60,6.0,-999.0,82,-99.99,,,-99.99,,2013-03-22 20:12:00,
2013-03-22 14:22:00,33.0,26.0,29.83,North,10,9.0,-999.0,75,-99.99,,,-99.99,,2013-03-22 20:22:00,
2013-03-22 14:32:00,33.0,26.0,29.83,North,10,9.0,-999.0,75,-99.99,,,-99.99,,2013-03-22 20:32:00,
2013-03-22 14:42:00,33.0,26.0,29.82,North,10,12.0,-999.0,76,-99.99,,,-99.99,,2013-03-22 20:42:00,
2013-03-22 14:52:00,33.0,26.0,29.82,North,10,12.0,-999.0,76,-99.99,,,-99.99,,2013-03-22 20:52:00,
2013-03-22 15:03:00,32.0,27.0,29.82,North,360,10.0,-999.0,79,-99.99,,,-99.99,,2013-03-22 21:03:00,
2013-03-22 15:12:00,32.0,27.0,29.82,North,360,10.0,-999.0,79,-99.99,,,-99.99,,2013-03-22 21:12:00,
2013-03-22 15:22:00,31.0,29.0,29.83,North,350,5.0,-999.0,92,-99.99,,,-99.99,,2013-03-22 21:22:00,
2013-03-22 15:32:00,31.0,29.0,29.83,North,350,5.0,-999.0,92,-99.99,,,-99.99,,2013-03-22 21:32:00,
2013-03-22 15:43:00,30.0,30.0,29.83,North,360,6.0,-999.0,99,-99.99,,,-99.99,,2013-03-22 21:43:00,
2013-03-22 15:53:00,30.0,30.0,29.83,North,360,6.0,-999.0,99,-99.99,,,-99.99,,2013-03-22 21:53:00,
2013-03-22 16:03:00,30.0,30.0,29.83,NNW,340,3.0,-999.0,100,-99.99,,,-99.99,,2013-03-22 22:03:00,
2013-03-22 16:12:00,30.0,30.0,29.83,NNW,340,3.0,-999.0,100,-99.99,,,-99.99,,2013-03-22 22:12:00,
2013-03-22 16:23:00,30.0,30.0,29.83,North,360,5.0,-999.0,100,-99.99,,,-99.99,,2013-03-22 22:23:00,
2013-03-22 16:32:00,30.0,30.0,29.83,North,360,5.0,-999.0,100,-99.99,,,-99.99,,2013-03-22 22:32:00,
2013-03-22 16:43:00,30.0,-99.9,29.84,North,360,5.0,-999.0,-999,-99.99,,,-99.99,,2013-03-22 22:43:00,
2013-03-22 16:53:00,30.0,-99.9,29.84,North,360,5.0,-999.0,-999,-99.99,,,-99.99,,2013-03-22 22:53:00,
2013-03-22 17:02:00,30.0,-99.9,29.84,NNW,340,15.0,22.0,-999,-99.99,,,-99.99,,2013-03-22 23:02:00,
2013-03-22 17:12:00,30.0,-99.9,29.84,NNW,340,15.0,22.0,-999,-99.99,,,-99.99,,2013-03-22 23:12:00,
2013-03-22 17:22:00,30.0,-99.9,29.85,NNW,340,9.0,-999.0,-999,-99.99,,,-99.99,,2013-03-22 23:22:00,
2013-03-22 17:33:00,30.0,-99.9,29.85,NNW,340,9.0,-999.0,-999,-99.99,,,-99.99,,2013-03-22 23:33:00,
2013-03-22 17:42:00,30.0,-99.9,29.86,NW,320,13.0,18.0,-999,-99.99,,,-99.99,,2013-03-22 23:42:00,
2013-03-22 17:52:00,30.0,-99.9,29.86,NW,320,13.0,18.0,-999,-99.99,,,-99.99,,2013-03-22 23:52:00,
2013-03-22 18:02:00,29.0,-99.9,29.86,NNW,330,14.0,21.0,-999,-99.99,,,-99.99,,2013-03-23 00:02:00,
2013-03-22 18:12:00,29.0,-99.9,29.86,NNW,330,14.0,21.0,-999,-99.99,,,-99.99,,2013-03-23 00:12:00,
2013-03-22 18:23:00,29.0,-99.9,29.87,NNW,340,18.0,24.0,-999,-99.99,,,-99.99,,2013-03-23 00:23:00,
2013-03-22 18:33:00,29.0,-99.9,29.87,NNW,340,18.0,24.0,-999,-99.99,,,-99.99,,2013-03-23 00:33:00,
2013-03-22 18:42:00,29.0,-99.9,29.87,NNW,340,18.0,24.0,-999,-99.99,,,-99.99,,2013-03-23 00:42:00,
2013-03-22 19:03:00,28.0,-99.9,29.91,North,350,20.0,29.0,-999,-99.99,,,-99.99,,2013-03-23 01:03:00,
2013-03-22 19:12:00,28.0,-99.9,29.91,North,350,20.0,29.0,-999,-99.99,,,-99.99,,2013-03-23 01:12:00,
2013-03-22 19:22:00,28.0,-99.9,29.91,NNW,340,16.0,21.0,-999,-99.99,,,-99.99,,2013-03-23 01:22:00,
2013-03-22 19:33:00,28.0,-99.9,29.91,NNW,340,16.0,21.0,-999,-99.99,,,-99.99,,2013-03-23 01:33:00,
2013-03-22 19:43:00,28.0,-99.9,29.92,North,350,15.0,22.0,-999,-99.99,,,-99.99,,2013-03-23 01:43:00,
2013-03-22 19:53:00,28.0,-99.9,29.92,North,350,15.0,22.0,-999,-99.99,,,-99.99,,2013-03-23 01:53:00,
2013-03-22 20:02:00,28.0,-99.9,29.93,North,350,18.0,24.0,-999,-99.99,,,-99.99,,2013-03-23 02:02:00,
2013-03-22 20:12:00,28.0,-99.9,29.93,North,350,18.0,24.0,-999,-99.99,,,-99.99,,2013-03-23 02:12:00,
2013-03-22 20:23:00,27.0,-99.9,29.94,NNW,340,18.0,25.0,-999,-99.99,,,-99.99,,2013-03-23 02:23:00,
2013-03-22 20:32:00,27.0,-99.9,29.94,NNW,340,18.0,25.0,-999,-99.99,,,-99.99,,2013-03-23 02:32:00,
2013-03-22 20:42:00,27.0,-99.9,29.95,North,360,21.0,27.0,-999,-99.99,,,-99.99,,2013-03-23 02:42:00,
2013-03-22 20:52:00,27.0,-99.9,29.95,North,360,21.0,27.0,-999,-99.99,,,-99.99,,2013-03-23 02:52:00,
2013-03-22 21:03:00,26.0,-99.9,29.96,North,360,23.0,29.0,-999,-99.99,,,-99.99,,2013-03-23 03:03:00,
2013-03-22 21:12:00,26.0,-99.9,29.96,North,360,23.0,29.0,-999,-99.99,,,-99.99,,2013-03-23 03:12:00,
2013-03-22 21:23:00,25.0,-99.9,29.98,North,360,17.0,24.0,-999,-99.99,,,-99.99,,2013-03-23 03:23:00,
2013-03-22 21:34:00,25.0,-99.9,29.98,North,360,17.0,24.0,-999,-99.99,,,-99.99,,2013-03-23 03:34:00,
2013-03-22 21:44:00,24.0,-99.9,29.98,North,360,21.0,30.0,-999,-99.99,,,-99.99,,2013-03-23 03:44:00,
2013-03-22 21:53:00,24.0,-99.9,29.98,North,360,21.0,30.0,-999,-99.99,,,-99.99,,2013-03-23 03:53:00,
2013-03-22 22:03:00,24.0,-99.9,29.99,North,360,17.0,28.0,-999,-99.99,,,-99.99,,2013-03-23 04:03:00,
2013-03-22 22:13:00,24.0,-99.9,29.99,North,360,17.0,28.0,-999,-99.99,,,-99.99,,2013-03-23 04:13:00,
2013-03-22 22:23:00,23.0,-99.9,30.00,North,360,23.0,29.0,-999,-99.99,,,-99.99,,2013-03-23 04:23:00,
2013-03-22 22:33:00,23.0,-99.9,30.00,North,360,23.0,29.0,-999,-99.99,,,-99.99,,2013-03-23 04:33:00,
2013-03-22 22:43:00,23.0,23.0,30.00,North,350,18.0,29.0,100,-99.99,,,-99.99,,2013-03-23 04:43:00,
2013-03-22 22:53:00,23.0,23.0,30.00,North,350,18.0,29.0,100,-99.99,,,-99.99,,2013-03-23 04:53:00,
2013-03-22 23:02:00,22.0,22.0,30.01,North,350,17.0,24.0,100,-99.99,,,-99.99,,2013-03-23 05:02:00,
2013-03-22 23:12:00,22.0,22.0,30.01,North,350,17.0,24.0,100,-99.99,,,-99.99,,2013-03-23 05:12:00,
2013-03-22 23:22:00,21.0,21.0,30.01,North,350,21.0,29.0,99,-99.99,,,-99.99,,2013-03-23 05:22:00,
2013-03-22 23:32:00,21.0,21.0,30.01,North,350,21.0,29.0,99,-99.99,,,-99.99,,2013-03-23 05:32:00,
2013-03-22 23:42:00,21.0,20.0,30.02,North,350,18.0,28.0,96,-99.99,,,-99.99,,2013-03-23 05:42:00,
2013-03-22 23:52:00,21.0,20.0,30.02,North,350,18.0,28.0,96,-99.99,,,-99.99,,2013-03-23 05:52:00,